Date String (YYYY-MM-DD hh:mm:ss) UTC,Instrument flags,Ambient pressure (hPa),Sample flow (lpm),Bypass flow (lpm),Sample temperature (°C),Ambient temperature (°C),ASC tube jacket temperature (°C),LED temperature (°C),Box temperature (°C),Sample RH (%),Span deviation,Mass concentration (μg/m³),Mass concentration (μg/m³),Mass concentration (μg/m³)
DateTimeUTC,F1_M11,P_M11,Q1_M11,Q2_M11,T1_M11,T2_M11,T3_M11,T4_M11,T5_M11,U1_M11,ZSPAN_M11,X2_M11,X0_M11,X1_M11
2022-02-11 05:00:00,,0818.5,5.00,0.00,23.1,22.0,00.0,32.2,24.9,10.2,0000.0,0000.68,0003.50,0000.44
2022-02-11 05:01:00,,0818.7,5.00,0.00,23.1,22.0,00.0,32.2,24.9,10.2,0000.0,0000.71,0003.41,0000.44
2022-02-11 05:02:00,,0818.7,5.00,0.00,23.1,22.0,00.0,32.2,24.8,10.2,0000.0,0000.75,0003.40,0000.45
2022-02-11 05:03:00,,0818.7,4.99,0.00,23.1,22.0,00.0,32.2,24.8,10.2,0000.0,0000.77,0003.50,0000.45
2022-02-11 05:04:00,,0818.7,5.00,0.00,23.1,21.9,00.0,32.1,24.9,10.2,0000.0,0000.78,0003.53,0000.44
2022-02-11 05:05:00,,0818.6,5.00,0.00,23.1,21.9,00.0,32.1,24.9,10.2,0000.0,0000.80,0003.61,0000.45
2022-02-11 05:06:00,,0818.6,5.02,0.00,23.1,21.9,00.0,32.1,24.8,10.1,0000.0,0000.84,0003.90,0000.45
2022-02-11 05:07:00,,0818.8,5.00,0.00,23.0,21.9,00.0,32.1,24.8,10.1,0000.0,0000.86,0003.82,0000.45
2022-02-11 05:08:00,,0818.9,4.98,0.00,23.0,21.9,00.0,32.1,24.8,10.1,0000.0,0000.86,0003.57,0000.45
2022-02-11 05:09:00,,0818.9,5.01,0.00,23.0,21.9,00.0,32.1,24.8,10.2,0000.0,0000.88,0002.97,0000.45
2022-02-11 05:10:00,,0818.9,5.00,0.00,23.0,21.9,00.0,32.1,24.8,10.0,0000.0,0000.90,0002.99,0000.44
2022-02-11 05:11:00,,0818.9,5.00,0.00,23.0,21.9,00.0,32.0,24.8,09.9,0000.0,0000.91,0002.96,0000.45
2022-02-11 05:12:00,,0818.9,4.99,0.00,23.0,21.9,00.0,32.0,24.8,09.9,0000.0,0000.91,0002.81,0000.45
2022-02-11 05:13:00,,0819.0,5.00,0.00,23.0,21.9,00.0,32.0,24.8,10.0,0000.0,0000.88,0002.74,0000.45
2022-02-11 05:14:00,,0819.0,5.00,0.00,23.0,21.9,00.0,32.0,24.8,10.0,0000.0,0000.88,0002.69,0000.45
2022-02-11 05:15:00,,0819.2,4.99,0.00,23.0,21.9,00.0,32.0,24.7,10.1,0000.0,0000.88,0002.58,0000.46
2022-02-11 05:16:00,,0819.1,4.99,0.00,22.9,21.9,00.0,32.0,24.7,10.2,0000.0,0000.84,0002.48,0000.46
2022-02-11 05:17:00,,0819.2,5.00,0.00,22.9,21.9,00.0,32.0,24.6,10.1,0000.0,0000.79,0002.18,0000.46
2022-02-11 05:18:00,,0819.2,5.01,0.00,22.9,21.9,00.0,32.0,24.5,10.2,0000.0,0000.80,0002.29,0000.46
2022-02-11 05:19:00,,0819.2,5.00,0.00,22.9,21.8,00.0,31.9,24.5,10.2,0000.0,0000.79,0001.53,0000.46
2022-02-11 05:20:00,,0819.3,4.99,0.00,22.9,21.8,00.0,31.9,24.5,10.1,0000.0,0000.76,0001.42,0000.46
2022-02-11 05:21:00,,0819.3,5.01,0.00,22.9,21.9,00.0,31.9,24.6,10.0,0000.0,0000.76,0001.52,0000.47
2022-02-11 05:22:00,,0819.3,4.98,0.00,22.9,22.0,00.0,31.9,24.6,10.2,0000.0,0000.77,0001.51,0000.48
2022-02-11 05:23:00,,0819.3,5.02,0.00,22.9,22.0,00.0,31.9,24.7,10.1,0000.0,0000.80,0001.58,0000.51
2022-02-11 05:24:00,,0819.3,5.00,0.00,22.9,22.1,00.0,32.0,24.7,10.6,0000.0,0000.79,0001.55,0000.52
2022-02-11 05:25:00,,0819.3,4.98,0.00,22.9,22.1,00.0,31.9,24.7,10.8,0000.0,0000.75,0001.41,0000.52
2022-02-11 05:26:00,,0819.4,5.01,0.00,22.9,22.1,00.0,31.9,24.7,10.9,0000.0,0000.77,0002.13,0000.52
2022-02-11 05:27:00,,0819.4,4.99,0.00,22.9,22.1,00.0,31.9,24.6,10.8,0000.0,0000.79,0002.94,0000.53
2022-02-11 05:28:00,,0819.3,5.00,0.00,22.9,22.1,00.0,31.9,24.6,10.6,0000.0,0000.81,0002.97,0000.53
2022-02-11 05:29:00,,0819.4,5.02,0.00,22.9,22.1,00.0,31.9,24.6,10.2,0000.0,0000.78,0002.78,0000.54
2022-02-11 05:30:00,,0819.3,4.98,0.00,22.9,22.1,00.0,31.9,24.6,10.6,0000.0,0000.78,0002.80,0000.54
2022-02-11 05:31:00,,0819.2,5.01,0.00,22.9,22.1,00.0,31.9,24.6,10.4,0000.0,0000.79,0002.82,0000.54
2022-02-11 05:32:00,,0819.1,4.99,0.00,22.9,22.1,00.0,31.9,24.6,10.3,0000.0,0000.78,0002.71,0000.54
2022-02-11 05:33:00,,0819.2,5.00,0.00,22.9,22.1,00.0,31.9,24.6,10.0,0000.0,0000.77,0002.67,0000.53
2022-02-11 05:34:00,,0819.3,5.00,0.00,22.9,22.1,00.0,31.9,24.6,10.0,0000.0,0000.69,0002.53,0000.50
2022-02-11 05:35:00,,0819.3,5.01,0.00,22.9,22.0,00.0,31.9,24.6,10.2,0000.0,0000.72,0002.57,0000.49
2022-02-11 05:36:00,,0819.2,5.00,0.00,22.9,22.0,00.0,31.9,24.6,10.2,0000.0,0000.72,0003.14,0000.49
2022-02-11 05:37:00,,0819.2,5.01,0.00,22.9,22.0,00.0,31.9,24.7,10.4,0000.0,0000.70,0003.46,0000.49
2022-02-11 05:38:00,,0819.0,4.98,0.00,22.9,22.1,00.0,31.9,24.7,10.1,0000.0,0000.68,0002.67,0000.48
2022-02-11 05:39:00,,0819.1,5.02,0.00,22.9,22.1,00.0,31.9,24.7,10.3,0000.0,0000.68,0002.97,0000.49
2022-02-11 05:40:00,,0818.9,5.00,0.00,22.9,22.1,00.0,31.9,24.6,10.4,0000.0,0000.70,0003.21,0000.49
2022-02-11 05:41:00,,0818.9,5.01,0.00,22.9,22.0,00.0,31.9,24.6,10.3,0000.0,0000.72,0003.31,0000.50
2022-02-11 05:42:00,,0818.9,4.99,0.00,22.9,22.0,00.0,31.9,24.5,10.4,0000.0,0000.70,0003.29,0000.50
2022-02-11 05:43:00,,0818.8,5.00,0.00,22.9,22.0,00.0,31.9,24.5,10.4,0000.0,0000.69,0003.30,0000.50
2022-02-11 05:44:00,,0818.7,4.99,0.00,22.9,22.0,00.0,31.9,24.7,10.5,0000.0,0000.69,0003.32,0000.50
2022-02-11 05:45:00,,0818.7,5.00,0.00,22.9,22.0,00.0,31.9,24.7,10.5,0000.0,0000.71,0003.36,0000.50
2022-02-11 05:46:00,,0818.5,4.98,0.00,22.9,22.0,00.0,31.9,24.7,10.4,0000.0,0000.69,0003.37,0000.50
2022-02-11 05:47:00,,0818.7,5.01,0.00,22.9,21.9,00.0,31.9,24.6,10.1,0000.0,0000.69,0002.93,0000.49
2022-02-11 05:48:00,,0818.6,5.00,0.00,22.9,21.9,00.0,31.9,24.6,10.3,0000.0,0000.71,0002.16,0000.49
2022-02-11 05:49:00,,0818.6,4.99,0.00,22.8,21.9,00.0,31.9,24.6,10.4,0000.0,0000.76,0003.14,0000.50
2022-02-11 05:50:00,,0818.6,5.02,0.00,22.8,21.9,00.0,31.9,24.6,10.2,0000.0,0000.77,0002.95,0000.49
2022-02-11 05:51:00,,0818.5,4.99,0.00,22.8,21.9,00.0,31.9,24.6,10.2,0000.0,0000.78,0002.90,0000.49
2022-02-11 05:52:00,,0818.6,5.00,0.00,22.8,21.9,00.0,31.9,24.6,10.2,0000.0,0000.78,0003.17,0000.49
2022-02-11 05:53:00,,0818.4,5.01,0.00,22.8,22.0,00.0,31.9,24.6,10.1,0000.0,0000.81,0003.21,0000.49
2022-02-11 05:54:00,,0818.5,4.99,0.00,22.8,21.9,00.0,31.9,24.6,10.0,0000.0,0000.86,0003.35,0000.50
2022-02-11 05:55:00,,0818.4,5.00,0.00,22.8,21.9,00.0,31.9,24.6,10.0,0000.0,0000.89,0003.41,0000.50
2022-02-11 05:56:00,,0818.4,5.01,0.00,22.8,21.8,00.0,31.9,24.6,10.0,0000.0,0000.87,0003.35,0000.50
2022-02-11 05:57:00,,0818.4,4.98,0.00,22.8,21.8,00.0,31.9,24.6,10.2,0000.0,0000.87,0003.52,0000.50
2022-02-11 05:58:00,,0818.5,5.02,0.00,22.8,21.8,00.0,31.8,24.6,10.3,0000.0,0000.90,0003.57,0000.51
2022-02-11 05:59:00,,0818.6,4.99,0.00,22.8,21.8,00.0,31.8,24.6,10.3,0000.0,0000.88,0003.27,0000.51
